小惑星2011 SQ249

2011 SQ249

English version
Home page
Updated on November 11, 2012

---------------------------------------------------------------------

・ プロフィール

・ 写真集

・ 軌道要素

The following orbital elements are taken from MPO210138

Epoch 2012 Mar. 14.0 TT = JDT 2456000.5                 MPC
M  36.07949              (2000.0)            P               Q
n   0.05844753     Peri.  262.81278     +0.58258962     +0.78677348
a   6.5759516      Node    44.95170     -0.58398984     +0.57970151
e   0.4545054      Incl.   16.77459     -0.56528329     +0.21197561
P  16.9            H   14.4           G   0.15           U   2
From 43 observations at 3 oppositions, 1995-2011, mean residual 0".29.

・ 光度変化

        H = 14.4  G = 0.15

---------------------------------------------------------------------

軌道要素はMPCのEphemerides and Orbital Elementsに掲載されたものです。
光度グラフはComet for Windowsで作成したものです。

---------------------------------------------------------------------

Copyright(C) Seiichi Yoshida (comet@aerith.net). All rights reserved.